Regional Weather Roundup
Issued by NWS

Home | Current Version | Previous Version | Graphics & Text | Print | Product List | Glossary On
Versions: 1 2 3 4 5 6 7 8 9 10 11 12 13 14 15 16 17 18 19 20 21 22 23 24 25 26 27 28 29 30 31 32 33 34 35 36 37 38 39 40 41 42 43 44 45 46 47 48 49 50
000
ASUS43 KFSD 190110
RWRSD

WEATHER ROUNDUP FOR SOUTH DAKOTA
NATIONAL WEATHER SERVICE SIOUX FALLS SD
800 PM CDT FRI APR 18 2014

NOTE: "FAIR" INDICATES FEW OR NO CLOUDS BELOW 12,000 FEET WITH NO
SIGNIFICANT WEATHER AND/OR OBSTRUCTIONS TO VISIBILITY.


SDZ001>005-009-010-012>017-190200-
NORTHWEST AND NORTH CENTRAL SOUTH DAKOTA

CITY           SKY/WX    TMP DP  RH WIND       PRES   REMARKS
BUFFALO          N/A     57  38  48 NW38G49   29.55R
FAITH            N/A     70  37  29 S15       29.54S
MOBRIDGE       CLOUDY    65  37  35 SE21      29.54F
$$

SDZ012>016-024>037-041>051-057-063-072>074-190200-
SOUTHWEST AND SOUTH CENTRAL SOUTH DAKOTA

CITY           SKY/WX    TMP DP  RH WIND       PRES   REMARKS
RAPID CTY ARPT MOCLDY    70  42  36 CALM      29.61R
PIERRE         MOCLDY    71  38  29 SE21G31   29.62F
CUSTER         CLOUDY    65  30  27 W18G32    29.76R
ELLSWORTH AFB  MOCLDY    68  42  39 S8        29.62R
PHILIP         CLOUDY    74  39  28 S16       29.58F
PINE RIDGE     CLOUDY    74  36  25 S21G33    29.65F
SPEARFISH      FAIR      59  39  47 NW13G26   29.71R
WINNER         FAIR      71  41  33 S30G43    29.72F
$$

SDZ004>011-016>023-039-040-190200-
NORTHEAST SOUTH DAKOTA

CITY           SKY/WX    TMP DP  RH WIND       PRES   REMARKS
ABERDEEN       PTCLDY    61  38  42 SE23G35   29.77F
WATERTOWN      MOCLDY    57  37  47 SE20G26   29.89F
SISSETON         N/A     47  38  71 SE24G32   29.93F
$$

SDZ017-020-022-023-036>040-048>070-190200-
SOUTHEAST SOUTH DAKOTA

CITY           SKY/WX    TMP DP  RH WIND       PRES   REMARKS
SIOUX FALLS    CLOUDY    61  36  39 S23       29.96F
HURON          CLOUDY    66  40  38 S20G31    29.78F
CHAMBERLAIN      N/A     69  41  36 S28G38    29.72F
MITCHELL       CLOUDY    67  41  38 S22G33    29.84F
YANKTON        CLOUDY    64  39  39 S18       29.94S
$$

ABBREVIATIONS USED IN REMARKS
   TC - TEMPERATURE IN CELSIUS
  WCI - WIND CHILL INDEX
   HX - HEAT INDEX
  VSB - VISIBILITY




USA.gov is the U.S. government's official web portal to all federal, state and local government web resources and services.